Flag for Czech Republic Weather past 2 weeks in Prague, Czech Republic

Now
66 °F

Passing clouds.


Feels Like: 66 °F
Forecast: 49 / 62 °F
Wind: 18 mph from Southwest

Location: Prague Ruzyne Airport

Current Time: Aug 23, 2014 at 6:15:47 PM

Latest Report: Aug 23, 2014 at 5:30 PM


Visibility: N/A

Pressure: 29.92 "Hg

Humidity: 46%

Dew point: 45 °F

Location of PragueLocation

Historic Weather in Prague — Graph

°F

Prague temperature yesterday

Maximum temperature yesterday: 70 °F (at 2:30 PM)
Minimum temperature yesterday: 46 °F (at 6:00 AM)
Average temperature yesterday: 58 °F

Past Weeks' High & Low Weather Summary

 TemperatureHumidityPressure
High84 °F (Aug 10, 2:30 PM)94% (Aug 10, 6:00 AM)30.07 "Hg (Aug 10, 6:00 AM)
Low45 °F (Aug 20, 6:00 AM)37% (Aug 20, 5:30 PM)29.65 "Hg (Aug 13, 8:30 PM)
Average61 °F72%29.93 "Hg
* Reported Aug 8 5:00 PM — Aug 23 5:00 PM, Prague, Weather by CustomWeather, © 2014

Note: Actual official high and low records may vary slightly from our data, if they occured in-between our weather recording intervals... More about our weather records

Advertising

Prague weather history for previous 24 hours

 ConditionsComfort  
Time TempWeatherWind HumidityBarometerVisibility
5:00 PM
Aug 23
66 °FPassing clouds.20 mph49%29.92 "HgN/A
4:30 PM66 °FSunny.16 mph49%29.92 "Hg10 mi
4:00 PM64 °FSunny.13 mph52%29.92 "Hg10 mi
3:30 PM64 °FSunny.13 mph56%29.92 "Hg10 mi
3:00 PM63 °FSunny.14 mph56%29.95 "Hg10 mi
2:30 PM64 °FSunny.13 mph56%29.95 "Hg10 mi
2:00 PM64 °FSunny.13 mph52%29.95 "Hg10 mi
1:30 PM64 °FSunny.15 mph49%29.95 "Hg10 mi
1:00 PM64 °FPassing clouds.13 mph52%29.95 "HgN/A
12:30 PM66 °FPassing clouds.14 mph49%29.95 "HgN/A
12:00 PM66 °FPassing clouds.13 mph49%29.95 "HgN/A
11:30 AM68 °FPassing clouds.12 mph46%29.95 "HgN/A
11:00 AM64 °FPassing clouds.12 mph52%29.95 "HgN/A
10:30 AM64 °FPassing clouds.12 mph49%29.95 "HgN/A
10:00 AM63 °FSunny.8 mph56%29.95 "Hg10 mi
9:30 AM63 °FPassing clouds.9 mph56%29.95 "HgN/A
9:00 AM59 °FSunny.9 mph63%29.95 "Hg10 mi
8:30 AM59 °FSunny.8 mph68%29.95 "Hg10 mi
8:00 AM55 °FSunny.10 mph72%29.95 "Hg10 mi
7:30 AM54 °FSunny.9 mph77%29.95 "Hg10 mi
7:00 AM52 °FClear.10 mph77%29.95 "Hg10 mi
6:30 AM48 °FClear.10 mph82%29.95 "Hg10 mi
6:00 AM48 °FClear.8 mph87%29.95 "Hg10 mi
5:30 AM48 °FClear.10 mph87%29.95 "Hg10 mi
5:00 AM48 °FClear.9 mph87%29.95 "Hg10 mi
4:30 AM48 °FClear.10 mph87%29.95 "Hg10 mi
4:00 AM48 °FClear.8 mph87%29.95 "Hg10 mi
3:30 AM48 °FClear.8 mph87%29.95 "Hg10 mi
3:00 AM50 °FClear.9 mph82%29.95 "Hg10 mi
2:30 AM48 °FClear.8 mph87%29.95 "Hg10 mi
1:30 AM52 °FClear.9 mph82%29.95 "Hg10 mi
1:00 AM54 °FClear.8 mph82%29.95 "Hg10 mi
12:30 AM55 °FClear.8 mph77%29.95 "Hg10 mi
12:00 AM55 °FClear.8 mph77%29.95 "Hg10 mi
11:30 PM
Aug 22
55 °FClear.8 mph77%29.95 "Hg10 mi
11:00 PM55 °FClear.7 mph77%29.95 "Hg10 mi
10:30 PM55 °FClear.8 mph77%29.95 "Hg10 mi
10:00 PM57 °FClear.8 mph72%29.98 "Hg10 mi
9:30 PM59 °FClear.8 mph68%29.95 "Hg10 mi
9:00 PM61 °FSunny.7 mph68%29.95 "Hg10 mi
8:30 PM63 °FSunny.9 mph64%29.95 "Hg10 mi
8:00 PM63 °FSunny.8 mph64%29.95 "Hg10 mi
7:00 PM64 °FSunny.8 mph52%29.92 "Hg10 mi
6:30 PM66 °FSunny.6 mph49%29.92 "Hg10 mi
6:00 PM66 °FSunny.6 mph46%29.92 "Hg10 mi
Weather by CustomWeather, © 2014

See weather overviewHow to use our weather pages